Time,TemperatureF,DewpointF,PressureIn,WindDirection,WindDirectionDegrees,WindSpeedMPH,WindSpeedGustMPH,Humidity,HourlyPrecipIn,Conditions,Clouds,dailyrainin,SoftwareType,DateUTC
2013-05-07 00:04:00,48.2,48.2,30.07,South,180,0.0,0.0,100,0.00,,,0.00,WSDL version 423,2013-05-07 04:04:00,
2013-05-07 00:14:00,48.0,48.0,30.07,South,180,0.0,0.0,100,0.00,,,0.00,WSDL version 423,2013-05-07 04:14:00,
2013-05-07 00:24:00,47.8,47.8,30.07,South,180,0.0,0.0,100,0.00,,,0.00,WSDL version 423,2013-05-07 04:24:00,
2013-05-07 00:34:00,47.7,47.7,30.07,South,180,0.0,0.0,100,0.00,,,0.00,WSDL version 423,2013-05-07 04:34:00,
2013-05-07 00:44:00,47.6,47.6,30.07,South,180,0.0,0.0,100,0.00,,,0.00,WSDL version 423,2013-05-07 04:44:00,
2013-05-07 00:53:00,47.3,47.3,30.06,South,180,0.0,0.0,100,0.00,,,0.00,WSDL version 423,2013-05-07 04:53:00,
2013-05-07 01:03:00,47.2,47.2,30.06,South,180,0.0,0.0,100,0.00,,,0.00,WSDL version 423,2013-05-07 05:03:00,
2013-05-07 01:13:00,47.0,47.0,30.06,South,180,0.0,0.0,100,0.00,,,0.00,WSDL version 423,2013-05-07 05:13:00,
2013-05-07 01:23:00,46.9,46.9,30.06,South,180,0.0,0.0,100,0.00,,,0.00,WSDL version 423,2013-05-07 05:23:00,
2013-05-07 01:33:00,46.7,46.7,30.05,South,180,0.0,0.0,100,0.00,,,0.00,WSDL version 423,2013-05-07 05:33:00,
2013-05-07 01:43:00,46.6,46.6,30.05,South,180,0.0,0.0,100,0.00,,,0.00,WSDL version 423,2013-05-07 05:43:00,
2013-05-07 01:53:00,46.5,46.5,30.05,South,180,0.0,0.0,100,0.00,,,0.00,WSDL version 423,2013-05-07 05:53:00,
2013-05-07 02:03:00,46.4,46.4,30.05,South,180,0.0,0.0,100,-99.99,,,-99.99,WSDL version 423,2013-05-07 06:03:00,
2013-05-07 02:13:00,46.4,46.4,30.05,South,180,0.0,0.0,100,0.00,,,0.00,WSDL version 423,2013-05-07 06:13:00,
2013-05-07 02:23:00,46.4,46.4,30.05,South,180,0.0,0.0,100,0.00,,,0.00,WSDL version 423,2013-05-07 06:23:00,
2013-05-07 02:33:00,46.2,46.2,30.05,South,180,0.0,0.0,100,0.00,,,0.00,WSDL version 423,2013-05-07 06:33:00,
2013-05-07 02:43:00,46.0,46.0,30.05,South,180,0.0,0.0,100,0.00,,,0.00,WSDL version 423,2013-05-07 06:43:00,
2013-05-07 02:53:00,45.9,45.9,30.05,South,180,0.0,0.0,100,0.00,,,0.00,WSDL version 423,2013-05-07 06:53:00,
2013-05-07 03:03:00,45.9,45.9,30.05,South,180,0.0,0.0,100,0.00,,,0.00,WSDL version 423,2013-05-07 07:03:00,
2013-05-07 03:13:00,45.9,45.9,30.05,South,180,0.0,0.0,100,0.00,,,0.00,WSDL version 423,2013-05-07 07:13:00,
2013-05-07 03:23:00,45.9,45.9,30.05,South,180,0.0,0.0,100,0.00,,,0.00,WSDL version 423,2013-05-07 07:23:00,
2013-05-07 03:33:00,45.7,45.7,30.05,South,180,0.0,0.0,100,0.00,,,0.00,WSDL version 423,2013-05-07 07:33:00,
2013-05-07 03:43:00,45.3,45.3,30.05,South,180,0.0,0.0,100,0.00,,,0.00,WSDL version 423,2013-05-07 07:43:00,
2013-05-07 03:53:00,45.1,45.1,30.05,South,180,0.0,0.0,100,0.00,,,0.00,WSDL version 423,2013-05-07 07:53:00,
2013-05-07 04:03:00,44.9,44.9,30.05,South,180,0.0,0.0,100,0.00,,,0.00,WSDL version 423,2013-05-07 08:03:00,
2013-05-07 04:13:00,44.3,44.3,30.05,South,180,0.0,0.0,100,0.00,,,0.00,WSDL version 423,2013-05-07 08:13:00,
2013-05-07 04:23:00,44.4,44.4,30.05,South,180,0.0,0.0,100,0.00,,,0.00,WSDL version 423,2013-05-07 08:23:00,
2013-05-07 04:33:00,44.5,44.5,30.05,South,180,0.0,0.0,100,0.00,,,0.00,WSDL version 423,2013-05-07 08:33:00,
2013-05-07 04:43:00,44.1,44.1,30.05,South,180,0.0,0.0,100,0.00,,,0.00,WSDL version 423,2013-05-07 08:43:00,
2013-05-07 04:53:00,44.1,44.1,30.05,South,180,0.0,0.0,100,0.00,,,0.00,WSDL version 423,2013-05-07 08:53:00,
2013-05-07 05:03:00,44.2,44.2,30.05,South,180,0.0,0.0,100,0.00,,,0.00,WSDL version 423,2013-05-07 09:03:00,
2013-05-07 05:13:00,44.2,44.2,30.05,South,180,0.0,0.0,100,-99.99,,,-99.99,WSDL version 423,2013-05-07 09:13:00,
2013-05-07 05:23:00,43.1,43.1,30.05,South,180,0.0,0.0,100,0.00,,,0.00,WSDL version 423,2013-05-07 09:23:00,
2013-05-07 05:33:00,42.5,42.5,30.06,South,180,0.0,0.0,100,0.00,,,0.00,WSDL version 423,2013-05-07 09:33:00,
2013-05-07 05:43:00,42.3,42.3,30.06,South,180,0.0,0.0,100,0.00,,,0.00,WSDL version 423,2013-05-07 09:43:00,
2013-05-07 05:53:00,42.4,42.4,30.06,South,180,0.0,0.0,100,0.00,,,0.00,WSDL version 423,2013-05-07 09:53:00,
2013-05-07 06:03:00,42.7,42.7,30.06,South,180,0.0,0.0,100,0.00,,,0.00,WSDL version 423,2013-05-07 10:03:00,
2013-05-07 06:13:00,42.9,42.9,30.06,South,180,0.0,0.0,100,0.00,,,0.00,WSDL version 423,2013-05-07 10:13:00,
2013-05-07 06:23:00,43.3,43.3,30.07,South,180,0.0,0.0,100,0.00,,,0.00,WSDL version 423,2013-05-07 10:23:00,
2013-05-07 06:33:00,43.7,43.7,30.07,South,180,0.0,0.0,100,0.00,,,0.00,WSDL version 423,2013-05-07 10:33:00,
2013-05-07 06:43:00,44.3,44.3,30.07,South,180,0.0,0.0,100,0.00,,,0.00,WSDL version 423,2013-05-07 10:43:00,
2013-05-07 06:53:00,44.9,44.9,30.07,South,180,0.0,0.0,100,0.00,,,0.00,WSDL version 423,2013-05-07 10:53:00,
2013-05-07 07:03:00,45.4,45.4,30.07,South,180,0.0,0.0,100,0.00,,,0.00,WSDL version 423,2013-05-07 11:03:00,
2013-05-07 07:13:00,46.5,46.5,30.07,South,180,0.0,0.0,100,0.00,,,0.00,WSDL version 423,2013-05-07 11:13:00,
2013-05-07 07:23:00,47.8,47.8,30.07,South,180,0.0,0.0,100,0.00,,,0.00,WSDL version 423,2013-05-07 11:23:00,
2013-05-07 07:33:00,49.3,49.3,30.07,SSE,161,0.0,0.0,100,0.00,,,0.00,WSDL version 423,2013-05-07 11:33:00,
2013-05-07 07:43:00,51.1,51.1,30.07,SW,225,0.0,0.0,100,0.00,,,0.00,WSDL version 423,2013-05-07 11:43:00,
2013-05-07 07:53:00,53.1,53.1,30.07,SW,225,0.0,0.0,100,0.00,,,0.00,WSDL version 423,2013-05-07 11:53:00,
2013-05-07 08:03:00,54.9,54.9,30.07,SW,214,0.0,0.0,100,0.00,,,0.00,WSDL version 423,2013-05-07 12:03:00,
2013-05-07 08:13:00,57.1,57.1,30.07,East,90,0.0,0.0,100,0.00,,,0.00,WSDL version 423,2013-05-07 12:13:00,
2013-05-07 08:23:00,59.2,59.2,30.07,SSW,203,0.0,2.2,100,0.00,,,0.00,WSDL version 423,2013-05-07 12:23:00,
2013-05-07 08:33:00,61.3,61.3,30.06,NNE,26,0.0,2.7,100,0.00,,,0.00,WSDL version 423,2013-05-07 12:33:00,
2013-05-07 08:43:00,62.8,62.8,30.07,NE,45,0.0,0.0,100,0.00,,,0.00,WSDL version 423,2013-05-07 12:43:00,
2013-05-07 08:53:00,64.0,64.0,30.07,WNW,293,0.0,0.0,100,0.00,,,0.00,WSDL version 423,2013-05-07 12:53:00,
2013-05-07 09:03:00,66.4,66.4,30.07,WSW,251,0.0,0.0,100,0.00,,,0.00,WSDL version 423,2013-05-07 13:03:00,
2013-05-07 09:13:00,68.5,68.5,30.07,SE,132,0.0,0.0,100,0.00,,,0.00,WSDL version 423,2013-05-07 13:13:00,
2013-05-07 09:23:00,70.1,70.1,30.06,SSW,195,0.2,4.0,100,0.00,,,0.00,WSDL version 423,2013-05-07 13:23:00,
2013-05-07 09:33:00,70.9,70.9,30.06,SSE,168,0.0,2.7,100,0.00,,,0.00,WSDL version 423,2013-05-07 13:33:00,
2013-05-07 09:43:00,71.1,71.1,30.06,NE,51,0.0,3.6,100,0.00,,,0.00,WSDL version 423,2013-05-07 13:43:00,
2013-05-07 09:53:00,72.3,72.3,30.06,South,190,0.0,3.6,100,0.00,,,0.00,WSDL version 423,2013-05-07 13:53:00,
2013-05-07 10:03:00,73.3,73.3,30.06,SW,225,0.0,3.6,100,0.00,,,0.00,WSDL version 423,2013-05-07 14:03:00,
2013-05-07 10:13:00,73.8,73.8,30.06,WSW,248,0.0,3.6,100,0.00,,,0.00,WSDL version 423,2013-05-07 14:13:00,
2013-05-07 10:23:00,74.6,74.6,30.06,SE,133,1.2,5.8,100,0.00,,,0.00,WSDL version 423,2013-05-07 14:23:00,
2013-05-07 10:33:00,75.2,75.2,30.06,South,174,1.3,4.9,100,0.00,,,0.00,WSDL version 423,2013-05-07 14:33:00,
2013-05-07 10:43:00,75.1,75.1,30.06,South,177,0.0,3.1,100,0.00,,,0.00,WSDL version 423,2013-05-07 14:43:00,
2013-05-07 10:53:00,75.4,75.4,30.06,SSE,165,0.0,5.4,100,0.00,,,0.00,WSDL version 423,2013-05-07 14:53:00,
2013-05-07 11:03:00,76.6,76.6,30.06,SSE,161,0.0,3.1,100,0.00,,,0.00,WSDL version 423,2013-05-07 15:03:00,
2013-05-07 11:13:00,76.9,76.9,30.05,SE,141,0.0,2.7,100,0.00,,,0.00,WSDL version 423,2013-05-07 15:13:00,
2013-05-07 11:23:00,77.5,77.5,30.06,SSE,155,0.0,3.6,100,0.00,,,0.00,WSDL version 423,2013-05-07 15:23:00,
2013-05-07 11:33:00,77.0,77.0,30.05,East,101,0.0,2.2,100,0.00,,,0.00,WSDL version 423,2013-05-07 15:33:00,
2013-05-07 11:43:00,77.0,77.0,30.05,SSE,164,0.0,3.1,100,0.00,,,0.00,WSDL version 423,2013-05-07 15:43:00,
2013-05-07 11:53:00,76.5,76.5,30.05,East,90,0.0,3.1,100,0.00,,,0.00,WSDL version 423,2013-05-07 15:53:00,
2013-05-07 12:03:00,77.8,77.8,30.04,ESE,109,0.0,2.2,100,0.00,,,0.00,WSDL version 423,2013-05-07 16:03:00,
2013-05-07 12:13:00,77.9,77.9,30.04,WSW,244,0.0,2.7,100,0.00,,,0.00,WSDL version 423,2013-05-07 16:13:00,
2013-05-07 12:23:00,78.5,78.5,30.04,West,259,2.4,7.2,100,0.00,,,0.00,WSDL version 423,2013-05-07 16:23:00,
2013-05-07 12:33:00,79.2,79.2,30.04,NNE,13,1.0,3.6,100,0.00,,,0.00,WSDL version 423,2013-05-07 16:33:00,
2013-05-07 12:43:00,79.1,79.1,30.03,SW,225,0.0,3.6,100,0.00,,,0.00,WSDL version 423,2013-05-07 16:43:00,
2013-05-07 12:53:00,79.3,79.3,30.03,North,11,0.0,4.0,100,0.00,,,0.00,WSDL version 423,2013-05-07 16:53:00,
2013-05-07 13:03:00,80.3,80.3,30.03,South,185,0.0,3.6,100,0.00,,,0.00,WSDL version 423,2013-05-07 17:03:00,
2013-05-07 13:13:00,80.9,80.9,30.03,ESE,105,0.0,4.0,100,0.00,,,0.00,WSDL version 423,2013-05-07 17:13:00,
2013-05-07 13:23:00,80.2,80.2,30.03,NE,45,0.0,2.7,100,0.00,,,0.00,WSDL version 423,2013-05-07 17:23:00,
2013-05-07 13:33:00,81.3,81.3,30.03,SW,225,0.0,0.0,100,0.00,,,0.00,WSDL version 423,2013-05-07 17:33:00,
2013-05-07 13:43:00,79.1,79.1,30.03,NNE,23,0.0,4.0,100,0.00,,,0.00,WSDL version 423,2013-05-07 17:43:00,
2013-05-07 13:53:00,80.8,80.8,30.02,SSW,200,0.0,4.0,100,0.00,,,0.00,WSDL version 423,2013-05-07 17:53:00,
2013-05-07 14:03:00,83.1,83.1,30.02,South,186,0.0,4.0,100,0.00,,,0.00,WSDL version 423,2013-05-07 18:03:00,
2013-05-07 14:13:00,82.0,82.0,30.01,NNE,19,0.0,0.0,100,0.00,,,0.00,WSDL version 423,2013-05-07 18:13:00,
2013-05-07 14:23:00,81.4,81.4,30.01,South,188,0.0,4.5,100,0.00,,,0.00,WSDL version 423,2013-05-07 18:23:00,
2013-05-07 14:33:00,82.6,82.6,30.00,SW,236,0.0,2.7,100,0.00,,,0.00,WSDL version 423,2013-05-07 18:33:00,
2013-05-07 14:43:00,82.6,82.6,30.00,WSW,239,0.9,4.9,100,0.00,,,0.00,WSDL version 423,2013-05-07 18:43:00,
2013-05-07 14:53:00,82.8,82.8,30.00,SSW,195,0.0,3.1,100,0.00,,,0.00,WSDL version 423,2013-05-07 18:53:00,
2013-05-07 15:03:00,83.2,83.2,29.99,South,180,0.0,4.9,100,0.00,,,0.00,WSDL version 423,2013-05-07 19:03:00,
2013-05-07 15:13:00,82.9,82.9,29.99,NE,45,0.0,4.0,100,0.00,,,0.00,WSDL version 423,2013-05-07 19:13:00,
2013-05-07 15:23:00,82.4,82.4,29.99,SSE,163,0.0,7.2,100,0.00,,,0.00,WSDL version 423,2013-05-07 19:23:00,
2013-05-07 15:33:00,83.2,83.2,29.98,SSW,199,0.0,3.6,100,0.00,,,0.00,WSDL version 423,2013-05-07 19:33:00,
2013-05-07 15:43:00,83.0,83.0,29.98,NE,48,0.0,0.0,100,0.00,,,0.00,WSDL version 423,2013-05-07 19:43:00,
2013-05-07 15:53:00,82.8,82.8,29.98,SSE,167,0.0,3.1,100,0.00,,,0.00,WSDL version 423,2013-05-07 19:53:00,
2013-05-07 16:03:00,81.9,81.9,29.98,North,6,0.0,2.7,100,0.00,,,0.00,WSDL version 423,2013-05-07 20:03:00,
2013-05-07 16:13:00,82.0,82.0,29.98,SE,124,0.0,0.0,100,0.00,,,0.00,WSDL version 423,2013-05-07 20:13:00,
2013-05-07 16:23:00,81.6,81.6,29.99,South,188,0.0,4.0,100,0.00,,,0.00,WSDL version 423,2013-05-07 20:23:00,
2013-05-07 16:33:00,80.9,80.9,29.99,SE,145,0.3,3.6,100,0.00,,,0.00,WSDL version 423,2013-05-07 20:33:00,
2013-05-07 16:43:00,80.0,80.0,29.99,South,180,0.0,3.6,100,0.00,,,0.00,WSDL version 423,2013-05-07 20:43:00,
2013-05-07 16:53:00,80.1,80.1,29.99,SSW,205,0.0,3.6,100,0.00,,,0.00,WSDL version 423,2013-05-07 20:53:00,
2013-05-07 17:03:00,79.9,79.9,29.99,ESE,119,0.0,2.7,100,0.00,,,0.00,WSDL version 423,2013-05-07 21:03:00,
2013-05-07 17:13:00,79.0,79.0,29.99,SSW,209,0.0,4.9,100,0.00,,,0.00,WSDL version 423,2013-05-07 21:13:00,
2013-05-07 17:23:00,77.4,77.4,29.99,NNE,23,0.0,0.0,100,0.00,,,0.00,WSDL version 423,2013-05-07 21:23:00,
2013-05-07 17:33:00,76.3,76.3,29.99,NE,45,0.0,2.2,100,0.00,,,0.00,WSDL version 423,2013-05-07 21:33:00,
2013-05-07 17:43:00,77.3,77.3,29.99,WSW,257,0.0,3.6,100,0.00,,,0.00,WSDL version 423,2013-05-07 21:43:00,
2013-05-07 17:53:00,76.1,76.1,29.99,SW,225,0.0,4.9,100,0.00,,,0.00,WSDL version 423,2013-05-07 21:53:00,
2013-05-07 18:03:00,76.5,76.5,29.99,SSE,158,0.0,0.0,100,0.00,,,0.00,WSDL version 423,2013-05-07 22:03:00,
2013-05-07 18:13:00,76.5,76.5,29.99,SW,225,0.0,0.0,100,0.00,,,0.00,WSDL version 423,2013-05-07 22:13:00,
2013-05-07 18:23:00,77.4,77.4,29.99,SSW,203,0.0,0.0,100,0.00,,,0.00,WSDL version 423,2013-05-07 22:23:00,
2013-05-07 18:33:00,74.8,74.8,30.00,South,191,0.0,0.0,100,0.00,,,0.00,WSDL version 423,2013-05-07 22:33:00,
2013-05-07 18:43:00,74.1,74.1,30.00,South,180,0.0,0.0,100,0.00,,,0.00,WSDL version 423,2013-05-07 22:43:00,
2013-05-07 18:53:00,73.5,73.5,30.00,SSW,208,0.0,0.0,100,0.00,,,0.00,WSDL version 423,2013-05-07 22:53:00,
2013-05-07 19:03:00,72.2,72.2,30.01,SSW,195,0.0,0.0,100,0.00,,,0.00,WSDL version 423,2013-05-07 23:03:00,
2013-05-07 19:13:00,71.4,71.4,30.01,SW,214,0.0,0.0,100,0.00,,,0.00,WSDL version 423,2013-05-07 23:13:00,
2013-05-07 19:23:00,70.7,70.7,30.01,SSW,203,0.0,2.2,100,0.00,,,0.00,WSDL version 423,2013-05-07 23:23:00,
2013-05-07 19:33:00,69.8,69.8,30.01,SW,218,0.0,0.0,100,0.00,,,0.00,WSDL version 423,2013-05-07 23:33:00,
2013-05-07 19:43:00,69.0,69.0,30.01,South,180,0.0,0.0,100,0.00,,,0.00,WSDL version 423,2013-05-07 23:43:00,
2013-05-07 19:53:00,68.6,68.6,30.02,South,180,0.0,0.0,100,0.00,,,0.00,WSDL version 423,2013-05-07 23:53:00,
2013-05-07 20:03:00,67.8,67.8,30.02,SW,225,0.0,0.0,100,0.00,,,0.00,WSDL version 423,2013-05-08 00:03:00,
2013-05-07 20:13:00,67.2,67.2,30.03,SSW,197,0.0,0.0,100,0.00,,,0.00,WSDL version 423,2013-05-08 00:13:00,
2013-05-07 20:23:00,67.0,67.0,30.03,South,180,0.0,0.0,100,0.00,,,0.00,WSDL version 423,2013-05-08 00:23:00,
2013-05-07 20:33:00,66.4,66.4,30.03,SSW,209,0.0,0.0,100,0.00,,,0.00,WSDL version 423,2013-05-08 00:33:00,
2013-05-07 20:43:00,65.9,65.9,30.03,SE,145,0.0,0.0,100,0.00,,,0.00,WSDL version 423,2013-05-08 00:43:00,
2013-05-07 20:53:00,65.5,65.5,30.04,SE,140,0.0,0.0,100,0.00,,,0.00,WSDL version 423,2013-05-08 00:53:00,
2013-05-07 21:03:00,65.1,65.1,30.04,SSE,153,0.0,0.0,100,0.00,,,0.00,WSDL version 423,2013-05-08 01:03:00,
2013-05-07 21:13:00,64.5,64.5,30.04,SE,135,0.0,0.0,100,0.00,,,0.00,WSDL version 423,2013-05-08 01:13:00,
2013-05-07 21:23:00,64.0,64.0,30.05,SSE,158,0.0,0.0,100,0.00,,,0.00,WSDL version 423,2013-05-08 01:23:00,
2013-05-07 21:33:00,63.7,63.7,30.05,South,183,0.0,0.0,100,0.00,,,0.00,WSDL version 423,2013-05-08 01:33:00,
2013-05-07 21:43:00,63.5,63.5,30.05,SE,135,0.0,0.0,100,0.00,,,0.00,WSDL version 423,2013-05-08 01:43:00,
2013-05-07 21:53:00,63.0,63.0,30.05,SE,135,0.0,0.0,100,0.00,,,0.00,WSDL version 423,2013-05-08 01:53:00,
2013-05-07 22:03:00,62.6,62.6,30.06,WSW,239,0.0,0.0,100,0.00,,,0.00,WSDL version 423,2013-05-08 02:03:00,
2013-05-07 22:13:00,62.3,62.3,30.06,WSW,248,0.0,0.0,100,0.00,,,0.00,WSDL version 423,2013-05-08 02:13:00,
2013-05-07 22:23:00,62.1,62.1,30.06,WSW,248,0.0,0.0,100,0.00,,,0.00,WSDL version 423,2013-05-08 02:23:00,
2013-05-07 22:33:00,61.6,61.6,30.06,WSW,248,0.0,0.0,100,0.00,,,0.00,WSDL version 423,2013-05-08 02:33:00,
2013-05-07 22:43:00,61.2,61.2,30.06,WSW,248,0.0,0.0,100,0.00,,,0.00,WSDL version 423,2013-05-08 02:43:00,
2013-05-07 22:53:00,60.9,60.9,30.06,WSW,248,0.0,0.0,100,0.00,,,0.00,WSDL version 423,2013-05-08 02:53:00,
2013-05-07 23:03:00,60.6,60.6,30.06,WSW,248,0.0,0.0,100,0.00,,,0.00,WSDL version 423,2013-05-08 03:03:00,
2013-05-07 23:13:00,60.2,60.2,30.06,WSW,248,0.0,0.0,100,0.00,,,0.00,WSDL version 423,2013-05-08 03:13:00,
2013-05-07 23:23:00,60.0,60.0,30.06,WSW,248,0.0,0.0,100,0.00,,,0.00,WSDL version 423,2013-05-08 03:23:00,
2013-05-07 23:33:00,59.7,59.7,30.06,WSW,248,0.0,0.0,100,0.00,,,0.00,WSDL version 423,2013-05-08 03:33:00,
2013-05-07 23:43:00,59.4,59.4,30.06,WSW,248,0.0,0.0,100,0.00,,,0.00,WSDL version 423,2013-05-08 03:43:00,
2013-05-07 23:53:00,59.1,59.1,30.07,WSW,248,0.0,0.0,100,0.00,,,0.00,WSDL version 423,2013-05-08 03:53:00,